Weather History for Arctic Village, AK

Change the Weather History Date:

Thursday, February 14, 2013

  Actual Average Record
Temperature  
Mean Temperature -13 °F -  
Max Temperature 3 °F -6 °F 20 °F (1991)
Min Temperature -27 °F -29 °F -56 °F (1971)
Degree Days  
Heating Degree Days 78    
Moisture  
Dew Point -21 °F    
Average Humidity 49    
Maximum Humidity 92    
Minimum Humidity 7    
Precipitation  
Precipitation 0.00 in - - ()
Sea Level Pressure  
Sea Level Pressure 29.61 in    
Wind  
Wind Speed 1 mph (ENE)    
Max Wind Speed 8 mph    
Max Gust Speed -    
Visibility 10 miles    
Events      
Averages and records for this station are not official NWS values.
T = Trace of Precipitation, MM = Missing Value Source: NWS Daily Summary

Daily Weather History Graph

Daily Weather History Graph

Search for Another Location

Airport:

Trip Planner

Search our weather history database for the weather conditions in past years. The results will help you decide how hot, cold, wet, or windy it might be!

Date:

Astronomy

Feb. 14, 2013 Rise Set
Actual Time 9:03 AM AKST 4:51 PM AKST
Civil Twilight 8:00 AM AKST 5:53 PM AKST
Nautical Twilight 6:55 AM AKST 6:59 PM AKST
Astronomical Twilight 5:50 AM AKST 8:04 PM AKST
Moon 8:26 AM AKST (2/14) No Moon Set
Length of Visible Light 9h 52m
Length of Day
7h 48m
Waxing Crescent, 23% of the Moon is Illuminated
Feb 14
Waxing Crescent
Feb 17
First Quarter
Feb 25
Full
Mar 4
Last Quarter
Mar 11
New

Hourly Weather History & Observations

Time (AKST) Temp. Windchill Dew Point Humidity Pressure Visibility Wind Dir Wind Speed Gust Speed Precip Events Conditions
12:16 AM -23.8 °F - - N/A% 29.78 in 10.0 mi Calm Calm - N/A   Clear
12:36 AM -23.8 °F -35.0 °F -25.6 °F 91% 29.78 in 10.0 mi NE 3.5 mph - N/A   Clear
12:56 AM -25.6 °F - - N/A% 29.78 in 10.0 mi Calm Calm - N/A   Clear
1:16 AM -23.8 °F - - N/A% 29.78 in 10.0 mi Calm Calm - N/A   Clear
1:36 AM -25.6 °F - - N/A% 29.78 in 10.0 mi Calm Calm - N/A   Clear
1:56 AM -25.6 °F - - N/A% 29.78 in 10.0 mi Calm Calm - N/A   Clear
2:16 AM -22.0 °F - - N/A% 29.78 in 10.0 mi Calm Calm - N/A   Clear
2:36 AM -27.4 °F - - N/A% 29.78 in 10.0 mi Calm Calm - N/A   Clear
3:16 AM -25.6 °F - - N/A% 29.77 in 10.0 mi Calm Calm - N/A   Clear
6:56 AM -20.2 °F - - N/A% 29.73 in 10.0 mi Calm Calm - N/A   Clear
7:16 AM -22.0 °F - - N/A% 29.73 in 10.0 mi Calm Calm - N/A   Clear
7:36 AM -20.2 °F - -23.8 °F 83% 29.72 in 10.0 mi Calm Calm - N/A   Clear
7:56 AM -25.6 °F - - N/A% 29.72 in 10.0 mi Calm Calm - N/A   Clear
8:16 AM -23.8 °F - - N/A% 29.71 in 10.0 mi Calm Calm - N/A   Clear
8:36 AM -20.2 °F - -38.2 °F 39% 29.71 in 10.0 mi Calm Calm - N/A   Clear
8:56 AM -23.8 °F - - N/A% 29.71 in 10.0 mi Calm Calm - N/A   Clear
9:16 AM -22.0 °F - - N/A% 29.70 in 10.0 mi Calm Calm - N/A   Clear
9:36 AM -20.2 °F - - N/A% 29.70 in 10.0 mi Calm Calm - N/A   Clear
9:56 AM -18.4 °F - - N/A% 29.70 in 10.0 mi Calm Calm - N/A   Clear
10:16 AM -18.4 °F - - N/A% 29.69 in 10.0 mi Calm Calm - N/A   Clear
10:36 AM -18.4 °F - - N/A% 29.69 in 10.0 mi Calm Calm - N/A   Clear
10:56 AM -18.4 °F - - N/A% 29.69 in 10.0 mi Calm Calm - N/A   Clear
11:16 AM -16.6 °F -26.8 °F - N/A% 29.68 in 10.0 mi NNE 3.5 mph - N/A   Clear
11:36 AM -14.8 °F - -27.4 °F 53% 29.67 in 10.0 mi Calm Calm - N/A   Clear
11:56 AM -14.8 °F - -29.2 °F 48% 29.67 in 10.0 mi Calm Calm - N/A   Clear
12:16 PM -13.0 °F - -20.2 °F 70% 29.66 in 10.0 mi Calm Calm - N/A   Clear
12:36 PM -13.0 °F - -25.6 °F 53% 29.66 in 10.0 mi Calm Calm - N/A   Clear
12:56 PM -11.2 °F - -38.2 °F 25% 29.65 in 10.0 mi Calm Calm - N/A   Clear
1:16 PM -9.4 °F - - N/A% 29.64 in 10.0 mi Calm Calm - N/A   Clear
1:36 PM -9.4 °F -18.6 °F - N/A% 29.63 in 10.0 mi North 3.5 mph - N/A   Clear
1:56 PM -7.6 °F - - N/A% 29.61 in 10.0 mi Calm Calm - N/A   Clear
2:16 PM -5.8 °F - -27.4 °F 35% 29.59 in 10.0 mi Calm Calm - N/A   Clear
2:36 PM -5.8 °F - -18.4 °F 55% 29.59 in 10.0 mi Calm Calm - N/A   Clear
2:56 PM -2.2 °F - -14.8 °F 55% 29.57 in 10.0 mi Calm Calm - N/A   Clear
3:16 PM -5.8 °F - - N/A% 29.56 in 10.0 mi Calm Calm - N/A   Clear
3:36 PM -2.2 °F -10.4 °F -23.8 °F 35% 29.56 in 10.0 mi ENE 3.5 mph - N/A   Clear
3:56 PM -0.4 °F -10.4 °F -22.0 °F 36% 29.54 in 10.0 mi ENE 4.6 mph - N/A   Clear
4:16 PM -2.2 °F -14.2 °F -27.4 °F 29% 29.53 in 10.0 mi East 5.8 mph - N/A   Clear
4:36 PM -0.4 °F - -9.4 °F 66% 29.53 in 10.0 mi Calm Calm - N/A   Clear
4:56 PM -2.2 °F - -22.0 °F 39% 29.52 in 10.0 mi Calm Calm - N/A   Clear
5:16 PM -4.0 °F - -27.4 °F 32% 29.52 in 10.0 mi Calm Calm - N/A   Clear
5:36 PM -2.2 °F - -29.2 °F 27% 29.51 in 10.0 mi Calm Calm - N/A   Clear
5:56 PM -5.8 °F - - N/A% 29.50 in 10.0 mi Calm Calm - N/A   Clear
6:16 PM -7.6 °F - -29.2 °F 34% 29.50 in 10.0 mi Calm Calm - N/A   Clear
6:36 PM -2.2 °F - -18.4 °F 46% 29.50 in 10.0 mi Calm Calm - N/A   Mostly Cloudy
6:56 PM -0.4 °F -12.0 °F -5.8 °F 78% 29.49 in 10.0 mi East 5.8 mph - N/A   Mostly Cloudy
7:16 PM -0.4 °F -12.0 °F -29.2 °F 25% 29.49 in 10.0 mi ENE 5.8 mph - N/A   Mostly Cloudy
7:36 PM 1.4 °F -12.5 °F -14.8 °F 47% 29.48 in 10.0 mi ENE 8.1 mph - N/A   Mostly Cloudy
7:56 PM 1.4 °F -8.3 °F -11.2 °F 56% 29.47 in 10.0 mi East 4.6 mph - N/A   Overcast
8:16 PM 1.4 °F - -5.8 °F 72% 29.46 in 10.0 mi Calm Calm - N/A   Overcast
8:36 PM 1.4 °F - -5.8 °F 72% 29.46 in 10.0 mi Calm Calm - N/A   Overcast
8:56 PM 1.4 °F - -0.4 °F 92% 29.46 in 10.0 mi Calm Calm - N/A   Overcast
9:16 PM -2.2 °F - -14.8 °F 55% 29.46 in 10.0 mi Calm Calm - N/A   Mostly Cloudy
9:36 PM -0.4 °F - -52.6 °F 7% 29.46 in 10.0 mi Calm Calm - N/A   Clear
9:56 PM -0.4 °F -10.4 °F -27.4 °F 27% 29.46 in 10.0 mi East 4.6 mph - N/A   Mostly Cloudy
10:16 PM -2.2 °F - -20.2 °F 42% 29.46 in 10.0 mi Calm Calm - N/A   Overcast
10:36 PM -0.4 °F -12.0 °F -18.4 °F 43% 29.46 in 10.0 mi East 5.8 mph - N/A   Overcast
10:56 PM 1.4 °F -9.9 °F - N/A% 29.46 in 10.0 mi East 5.8 mph - N/A   Overcast
11:16 PM -0.4 °F -10.4 °F -25.6 °F 30% 29.46 in 10.0 mi North 4.6 mph - N/A   Overcast
11:36 PM 1.4 °F -6.2 °F -14.8 °F 47% 29.46 in 10.0 mi East 3.5 mph - N/A   Overcast
11:56 PM 3.2 °F -7.8 °F -2.2 °F 78% 29.46 in 10.0 mi East 5.8 mph - N/A   Overcast